Flag for Iceland Weather past 2 weeks in Reykjavik, Iceland

Now
27 °F

Passing clouds.


Feels Like: 15 °F
Forecast: N/A
Wind: 14 mph from North

Location: Reykjavik Airport

Current Time: Jan 30, 2015 at 9:50:38 PM

Latest Report: Jan 30, 2015 at 9:00 PM


Visibility: N/A

Pressure: 29.89 "Hg

Humidity: 64%

Dew point: 16 °F

Location of ReykjavikLocation

Historic Weather in Reykjavik — Graph

°F

Reykjavik temperature yesterday

Maximum temperature yesterday: 37 °F (at 5:00 AM)
Minimum temperature yesterday: 23 °F (at 1:00 AM)
Average temperature yesterday: 32 °F

Past Weeks' High & Low Weather Summary

 TemperatureHumidityPressure
High43 °F (Jan 26, 10:00 PM)100% (Jan 24, 7:00 PM)30.36 "Hg (Jan 24, 7:00 PM)
Low16 °F (Jan 18, 6:00 AM)46% (Jan 18, 12:00 PM)28.65 "Hg (Jan 25, 8:00 AM)
Average32 °F77%29.34 "Hg
* Reported Jan 15 8:00 PM — Jan 30 8:00 PM, Reykjavik, Weather by CustomWeather, © 2014

Note: Actual official high and low records may vary slightly from our data, if they occured in-between our weather recording intervals... More about our weather records

Advertising

Reykjavik weather history for previous 24 hours

 ConditionsComfort  
Time TempWeatherWind HumidityBarometerVisibility
8:00 PM
Jan 30
28 °FPassing clouds.15 mph59%29.86 "HgN/A
7:00 PM28 °FPassing clouds.15 mph64%29.83 "HgN/A
6:00 PM28 °FPassing clouds.17 mph64%29.83 "HgN/A
5:00 PM25 °FPassing clouds.7 mph69%29.80 "HgN/A
4:00 PM25 °FPassing clouds.5 mph63%29.80 "HgN/A
3:00 PM27 °FPassing clouds.6 mph64%29.80 "HgN/A
2:00 PM27 °FSunny.2 mph59%29.80 "Hg10 mi
1:00 PM25 °FSunny.5 mph69%29.77 "Hg10 mi
12:00 PM25 °FSunny.1 mph69%29.77 "Hg10 mi
11:00 AM23 °FPassing clouds.7 mph68%29.77 "HgN/A
10:00 AM25 °FClear.10 mph74%29.74 "Hg10 mi
9:00 AM25 °FClear.8 mph74%29.74 "Hg10 mi
8:00 AM28 °FClear.5 mph64%29.74 "Hg10 mi
7:00 AM23 °FPassing clouds.3 mph80%29.74 "HgN/A
6:00 AM25 °FPassing clouds.3 mph80%29.74 "HgN/A
5:00 AM27 °FClear.5 mph74%29.71 "Hg10 mi
4:00 AM27 °FClear.7 mph74%29.71 "Hg10 mi
3:00 AM27 °FPassing clouds.5 mph74%29.71 "HgN/A
2:00 AM27 °FPassing clouds.5 mph74%29.71 "HgN/A
1:00 AM27 °FPassing clouds.5 mph74%29.68 "HgN/A
12:00 AM30 °FClear.6 mph69%29.68 "Hg10 mi
11:00 PM
Jan 29
32 °FPassing clouds.7 mph64%29.68 "HgN/A
10:00 PM32 °FClear.12 mph64%29.65 "Hg10 mi
9:00 PM32 °FPassing clouds.2 mph64%29.65 "HgN/A
Weather by CustomWeather, © 2014

See weather overviewHow to use our weather pages